Weather History for KPGA - September, 2013

Change the Weather History Date:

Sunday, September 22, 2013

  Actual Average Record
Temperature  
Mean Temperature 70 °F -  
Max Temperature 78 °F 79 °F 91 °F (1958)
Min Temperature 59 °F 54 °F 42 °F (1978)
Cooling Degree Days 5    
Growing Degree Days 20 (Base 50)    
Moisture  
Dew Point 36 °F    
Average Humidity 29    
Maximum Humidity 46    
Minimum Humidity 10    
Precipitation  
Precipitation 0.00 in - - ()
Sea Level Pressure  
Sea Level Pressure 29.56 in    
Wind  
Wind Speed 12 mph (SW)    
Max Wind Speed 21 mph    
Max Gust Speed 38 mph    
Visibility 10 miles    
Events      
Averages and records for this station are not official NWS values.
T = Trace of Precipitation, MM = Missing Value Source: NWS Daily Summary

Daily Weather History Graph

Daily Weather History Graph

Search for Another Location

Airport or City:

Trip Planner

Search our weather history database for the weather conditions in past years. The results will help you decide how hot, cold, wet, or windy it might be!

Date:

Astronomy

Sep. 22, 2013 Rise Set
Actual Time 6:13 AM MST 6:22 PM MST
Civil Twilight 5:48 AM MST 6:48 PM MST
Nautical Twilight 5:17 AM MST 7:18 PM MST
Astronomical Twilight 4:47 AM MST 7:48 PM MST
Moon 8:20 PM MST (9/22) 9:31 AM MST (9/22)
Length of Visible Light 13h 00m
Length of Day
12h 08m
Waning Gibbous, 88% of the Moon is Illuminated
Sep 22
Waning Gibbous
Sep 26
Last Quarter
Oct 4
New
Oct 11
First Quarter
Oct 18
Full

Hourly Weather History & Observations

Time (MST) Temp. Dew Point Humidity Pressure Visibility Wind Dir Wind Speed Gust Speed Precip Events Conditions
12:53 AM 73.0 °F 44.1 °F 35% 29.55 in 10.0 mi South 11.5 mph - N/A   Clear
1:53 AM 70.0 °F 44.1 °F 39% 29.54 in 10.0 mi SSE 10.4 mph - N/A   Clear
2:53 AM 68.0 °F 45.0 °F 43% 29.53 in 10.0 mi SSE 12.7 mph - N/A   Clear
3:53 AM 69.1 °F 46.9 °F 45% 29.51 in 10.0 mi SSE 12.7 mph - N/A   Mostly Cloudy
4:53 AM 69.1 °F 46.0 °F 44% 29.50 in 10.0 mi SSE 13.8 mph 23.0 mph N/A   Overcast
5:53 AM 70.0 °F 46.9 °F 44% 29.50 in 10.0 mi SSE 19.6 mph 24.2 mph N/A   Overcast
6:53 AM 70.0 °F 48.0 °F 46% 29.51 in 10.0 mi SSE 15.0 mph 21.9 mph N/A   Clear
7:53 AM 71.1 °F 48.9 °F 45% 29.51 in 10.0 mi SSE 9.2 mph - N/A   Clear
8:53 AM 75.0 °F 46.0 °F 36% 29.50 in 10.0 mi SSW 11.5 mph 18.4 mph N/A   Clear
9:53 AM 77.0 °F 37.0 °F 24% 29.49 in 10.0 mi SSW 12.7 mph 28.8 mph N/A   Mostly Cloudy
10:53 AM 75.9 °F 30.0 °F 19% 29.48 in 10.0 mi WSW 10.4 mph 19.6 mph N/A   Partly Cloudy
11:53 AM 78.1 °F 18.0 °F 10% 29.45 in 9.0 mi SSW 20.7 mph 38.0 mph N/A   Clear
12:53 PM 77.0 °F 21.0 °F 12% 29.45 in 10.0 mi SW 17.3 mph 27.6 mph N/A   Clear
1:53 PM 75.0 °F 19.0 °F 12% 29.46 in 10.0 mi WNW 16.1 mph 29.9 mph N/A   Partly Cloudy
2:53 PM 72.0 °F 26.1 °F 18% 29.50 in 10.0 mi West 13.8 mph 31.1 mph N/A   Clear
3:53 PM 70.0 °F 27.0 °F 20% 29.54 in 10.0 mi West 12.7 mph 32.2 mph N/A   Clear
4:53 PM 69.1 °F 30.0 °F 23% 29.57 in 10.0 mi West 13.8 mph 31.1 mph N/A   Clear
5:53 PM 66.9 °F 32.0 °F 27% 29.61 in 10.0 mi West 17.3 mph 29.9 mph N/A   Clear
6:53 PM 66.0 °F 30.9 °F 27% 29.63 in 10.0 mi West 8.1 mph 21.9 mph N/A   Clear
7:53 PM 66.0 °F 32.0 °F 28% 29.68 in 10.0 mi West 5.8 mph 16.1 mph N/A   Clear
8:53 PM 64.0 °F 34.0 °F 33% 29.70 in 10.0 mi NNW 5.8 mph - N/A   Clear
9:53 PM 63.0 °F 34.0 °F 34% 29.71 in 10.0 mi Calm Calm - N/A   Clear
10:53 PM 62.1 °F 34.0 °F 35% 29.74 in 10.0 mi WNW 3.5 mph - N/A   Clear
11:53 PM 59.0 °F 35.1 °F 41% 29.75 in 10.0 mi Calm Calm - N/A   Clear